Find Starlink 1680

NORAD ID: 46558 Int'l Des: 2020-070 Owner: SPXS Country: US Constellation: starlink decayed
LEOCIRCULAR

Re-entered — 7. Mai 2026

3D-Globus wird geladen...

About Starlink 1680

Starlink 1680 (NORAD 46558) is a starlink constellation satellite (v1.0) launched Oct 6, 2020 by SPXS of US. It re-entered the atmosphere on May 7, 2026. with a mass of 260.00 kg.

Über Starlink 1680

Beschreibung wird geladen...

Höhenverlauf

Loading altitude history...

Zweizeiliger Elementsatz

1 46558U 20070AC 26127.03430032 .13002747 12543-4 34893-3 0 9993
2 46558 53.0160 171.5175 0004238 291.9176 68.1422 16.45526119309717
Epoch: 7. Mai 2026 • Age: 1157 hours

Aktueller Status

Position data unavailable
Startdatum 6. Okt. 2020
Alter 5.7 years
Verglühungsdatum 7. Mai 2026
Typ internet

Technische Details

Klassifizierung Payload
Masse 260.00 kg
Trockenmasse 248.00 kg
Gesamtmasse 260.00 kg
Länge 0.20 m
Durchmesser 2.80 m
Spannweite 9.00 m
Form Box + pan
Hersteller SPXS
Bus-Typ Starlink
Phasenstatus Unknown Transfer Status
Besitzer/Staat SPXS/US

Most Searched